Location: Dallas
(32.7833°N, 96.8000°W)
Time: 12:25:40
(UTC-06:00)

Envisat - Pass Details

Date: 25 October 2019
Orbit: 764 x 766 km, 98.1° (Epoch: 18 November)

Event Time Altitude Azimuth Distance (km) Brightness Sun altitude
Rises 19:20:51 0° 158° (SSE) 3,217 6.1 -8.6°
Reaches altitude 10° 19:23:10 10° 155° (SSE) 2,294 5.3 -9.1°
Maximum altitude 19:28:09 63° 75° (ENE) 855 3.0 -10.1°
Drops below altitude 10° 19:33:10 10° 355° (N) 2,307 5.5 -11.2°
Sets 19:35:30 0° 352° (N) 3,236 6.3 -11.6°
